| time (UTC) | temp F | wind direction | speed knots | gust knots | rain 1hr in | rain 24hr in | rain mn in | humidity % | barometer mb |
| 20260508231202 | 62 | 250 | 1.7 | 1.7 | 0.00 | 0.00 | 0.00 | 59 | 999.0 |
| 20260508230703 | 62 | 282 | 0.0 | 0.0 | 0.00 | 0.00 | 0.00 | 59 | 999.0 |
| 20260508230202 | 62 | 276 | 1.7 | 1.7 | 0.00 | 0.00 | 0.00 | 57 | 999.0 |
| 20260508225702 | 62 | 234 | 2.6 | 2.6 | 0.00 | 0.00 | 0.00 | 57 | 1000.0 |
| 20260508225202 | 63 | 209 | 1.7 | 1.7 | 0.00 | 0.00 | 0.00 | 57 | 1000.0 |
| 20260508224702 | 62 | 172 | 1.7 | 1.7 | 0.00 | 0.00 | 0.00 | 57 | 1000.0 |
| 20260508224205 | 62 | 297 | 1.7 | 1.7 | 0.00 | 0.00 | 0.00 | 55 | 1000.0 |
| 20260508223702 | 62 | 258 | 0.0 | 0.0 | 0.00 | 0.00 | 0.00 | 54 | 1000.0 |
| 20260508223202 | 62 | 258 | 1.7 | 1.7 | 0.00 | 0.00 | 0.00 | 55 | 1000.0 |
| 20260508222702 | 63 | 234 | 1.7 | 1.7 | 0.00 | 0.00 | 0.00 | 55 | 999.0 |
| 20260508222202 | 63 | 192 | 1.7 | 1.7 | 0.00 | 0.00 | 0.00 | 55 | 999.0 |
| 20260508221702 | 63 | 262 | 0.9 | 0.9 | 0.00 | 0.00 | 0.00 | 55 | 999.0 |
| 20260508221202 | 64 | 209 | 1.7 | 1.7 | 0.00 | 0.00 | 0.00 | 53 | 1000.0 |
| 20260508220702 | 64 | 261 | 1.7 | 1.7 | 0.00 | 0.00 | 0.00 | 53 | 1000.0 |
| 20260508220202 | 63 | 192 | 1.7 | 1.7 | 0.00 | 0.00 | 0.00 | 55 | 1000.0 |
| 20260508215703 | 64 | 203 | 2.6 | 2.6 | 0.00 | 0.00 | 0.00 | 54 | 1000.0 |
| 20260508215202 | 64 | 234 | 1.7 | 1.7 | 0.00 | 0.00 | 0.00 | 54 | 1000.0 |
| 20260508214704 | 65 | 192 | 0.9 | 0.9 | 0.00 | 0.00 | 0.00 | 50 | 1000.0 |
| 20260508214203 | 65 | 238 | 1.7 | 1.7 | 0.00 | 0.00 | 0.00 | 40 | 1000.0 |
| 20260508213702 | 65 | 342 | 0.9 | 0.9 | 0.00 | 0.00 | 0.00 | 39 | 1000.0 |
| 20260508213202 | 66 | 294 | 1.7 | 1.7 | 0.00 | 0.00 | 0.00 | 40 | 1000.0 |
| 20260508212703 | 66 | 255 | 1.7 | 1.7 | 0.00 | 0.00 | 0.00 | 50 | 1000.0 |
| 20260508212203 | 66 | 102 | 0.9 | 0.9 | 0.00 | 0.00 | 0.00 | 49 | 1000.0 |
| 20260508211702 | 67 | 138 | 0.0 | 0.0 | 0.00 | 0.00 | 0.00 | 48 | 1000.0 |
| 20260508211202 | 65 | 245 | 1.7 | 1.7 | 0.00 | 0.00 | 0.00 | 48 | 1000.0 |
| 20260508210703 | 64 | 117 | 1.7 | 1.7 | 0.00 | 0.00 | 0.00 | 50 | 1000.0 |
| 20260508210202 | 64 | 227 | 1.7 | 1.7 | 0.00 | 0.00 | 0.00 | 51 | 1000.0 |
| 20260508205702 | 65 | 120 | 1.7 | 1.7 | 0.00 | 0.00 | 0.00 | 48 | 1000.0 |
| 20260508205203 | 66 | 220 | 0.9 | 0.9 | 0.00 | 0.00 | 0.00 | 49 | 1000.0 |
| 20260508204703 | 66 | 180 | 0.9 | 0.9 | 0.00 | 0.00 | 0.00 | 47 | 1000.0 |
| 20260508204202 | 66 | 200 | 0.0 | 0.0 | 0.00 | 0.00 | 0.00 | 46 | 1000.0 |
| 20260508203703 | 66 | 200 | 0.0 | 0.0 | 0.00 | 0.00 | 0.00 | 46 | 1000.0 |
| 20260508203202 | 65 | 246 | 2.6 | 2.6 | 0.00 | 0.00 | 0.00 | 46 | 1000.0 |
| 20260508202702 | 65 | 258 | 0.0 | 0.0 | 0.00 | 0.00 | 0.00 | 45 | 1001.0 |
| 20260508202202 | 64 | 309 | 0.9 | 0.9 | 0.00 | 0.00 | 0.00 | 44 | 1001.0 |
| 20260508201702 | 66 | 245 | 1.7 | 1.7 | 0.00 | 0.00 | 0.00 | 45 | 1001.0 |
| 20260508201202 | 64 | 42 | 1.7 | 1.7 | 0.00 | 0.00 | 0.00 | 43 | 1001.0 |
| 20260508200702 | 64 | 270 | 1.7 | 1.7 | 0.00 | 0.00 | 0.00 | 37 | 1001.0 |
| 20260508200202 | 65 | 276 | 2.6 | 2.6 | 0.00 | 0.00 | 0.00 | 35 | 1001.0 |
| 20260508195702 | 66 | 265 | 1.7 | 1.7 | 0.00 | 0.00 | 0.00 | 35 | 1001.0 |
| 20260508195202 | 65 | 244 | 1.7 | 1.7 | 0.00 | 0.00 | 0.00 | 37 | 1001.0 |
| 20260508194702 | 65 | 83 | 1.7 | 1.7 | 0.00 | 0.00 | 0.00 | 38 | 1001.0 |
| 20260508194202 | 65 | 250 | 1.7 | 1.7 | 0.00 | 0.00 | 0.00 | 36 | 1002.0 |
| 20260508193702 | 64 | 270 | 1.7 | 1.7 | 0.00 | 0.00 | 0.00 | 37 | 1002.0 |
| 20260508193203 | 64 | 247 | 1.7 | 1.7 | 0.00 | 0.00 | 0.00 | 38 | 1002.0 |
| 20260508192702 | 65 | 261 | 1.7 | 1.7 | 0.00 | 0.00 | 0.00 | 35 | 1002.0 |
| 20260508192202 | 65 | 245 | 1.7 | 1.7 | 0.00 | 0.00 | 0.00 | 33 | 1002.0 |
| 20260508191703 | 64 | 268 | 1.7 | 1.7 | 0.00 | 0.00 | 0.00 | 32 | 1002.0 |
| 20260508191202 | 65 | 269 | 1.7 | 1.7 | 0.00 | 0.00 | 0.00 | 32 | 1002.0 |
| 20260508190702 | 64 | 318 | 1.7 | 1.7 | 0.00 | 0.00 | 0.00 | 32 | 1002.0 |
| 20260508190203 | 63 | 289 | 1.7 | 1.7 | 0.00 | 0.00 | 0.00 | 34 | 1002.0 |
| 20260508185702 | 64 | 235 | 1.7 | 1.7 | 0.00 | 0.00 | 0.00 | 31 | 1002.0 |
| 20260508185203 | 65 | 242 | 3.5 | 3.5 | 0.00 | 0.00 | 0.00 | 33 | 1002.0 |
| 20260508184703 | 66 | 348 | 1.7 | 1.7 | 0.00 | 0.00 | 0.00 | 32 | 1002.0 |
| 20260508184203 | 64 | 300 | 1.7 | 1.7 | 0.00 | 0.00 | 0.00 | 34 | 1002.0 |
| 20260508183702 | 64 | 216 | 1.7 | 1.7 | 0.00 | 0.00 | 0.00 | 37 | 1002.0 |
| 20260508183202 | 64 | 222 | 1.7 | 1.7 | 0.00 | 0.00 | 0.00 | 37 | 1002.0 |
| 20260508182702 | 64 | 250 | 2.6 | 2.6 | 0.00 | 0.00 | 0.00 | 35 | 1002.0 |
| 20260508182202 | 65 | 313 | 2.6 | 2.6 | 0.00 | 0.00 | 0.00 | 34 | 1002.0 |
| 20260508181702 | 64 | 235 | 2.6 | 2.6 | 0.00 | 0.00 | 0.00 | 36 | 1002.0 |
| 20260508181206 | 63 | 246 | 1.7 | 1.7 | 0.00 | 0.00 | 0.00 | 37 | 1002.0 |
| 20260508180705 | 63 | 12 | 1.7 | 1.7 | 0.00 | 0.00 | 0.00 | 35 | 1002.0 |
| 20260508180202 | 62 | 227 | 2.6 | 2.6 | 0.00 | 0.00 | 0.00 | 37 | 1002.0 |
| 20260508175703 | 64 | 225 | 2.6 | 2.6 | 0.00 | 0.00 | 0.00 | 34 | 1003.0 |
| 20260508175202 | 63 | 324 | 0.0 | 0.0 | 0.00 | 0.00 | 0.00 | 34 | 1003.0 |
| 20260508174703 | 63 | 246 | 4.3 | 5.2 | 0.00 | 0.00 | 0.00 | 35 | 1003.0 |
| 20260508174203 | 62 | 222 | 0.9 | 0.9 | 0.00 | 0.00 | 0.00 | 33 | 1003.0 |
| 20260508173704 | 63 | 308 | 0.9 | 0.9 | 0.00 | 0.00 | 0.00 | 33 | 1003.0 |
| 20260508173202 | 62 | 247 | 2.6 | 2.6 | 0.00 | 0.00 | 0.00 | 35 | 1003.0 |
| 20260508172704 | 62 | 6 | 0.9 | 0.9 | 0.00 | 0.00 | 0.00 | 36 | 1003.0 |
| 20260508172203 | 62 | 242 | 1.7 | 1.7 | 0.00 | 0.00 | 0.00 | 37 | 1003.0 |
| 20260508171702 | 62 | 219 | 2.6 | 2.6 | 0.00 | 0.00 | 0.00 | 37 | 1003.0 |
| 20260508171203 | 62 | 25 | 1.7 | 1.7 | 0.00 | 0.00 | 0.00 | 35 | 1003.0 |
| 20260508170702 | 62 | 36 | 0.9 | 0.9 | 0.00 | 0.00 | 0.00 | 36 | 1003.0 |
| 20260508170203 | 62 | 342 | 1.7 | 1.7 | 0.00 | 0.00 | 0.00 | 38 | 1003.0 |
| 20260508165702 | 62 | 54 | 1.7 | 1.7 | 0.00 | 0.00 | 0.00 | 38 | 1004.0 |
| 20260508165207 | 62 | 5 | 1.7 | 1.7 | 0.00 | 0.00 | 0.00 | 37 | 1004.0 |
| 20260508164705 | 62 | 43 | 1.7 | 1.7 | 0.00 | 0.00 | 0.00 | 36 | 1004.0 |
| 20260508164202 | 60 | 266 | 1.7 | 1.7 | 0.00 | 0.00 | 0.00 | 41 | 1004.0 |
| 20260508163704 | 60 | 242 | 1.7 | 1.7 | 0.00 | 0.00 | 0.00 | 40 | 1004.0 |
| 20260508163202 | 60 | 270 | 0.0 | 0.0 | 0.00 | 0.00 | 0.00 | 40 | 1004.0 |
| 20260508162704 | 60 | 18 | 2.6 | 2.6 | 0.00 | 0.00 | 0.00 | 40 | 1004.0 |
| 20260508162203 | 60 | 250 | 1.7 | 1.7 | 0.00 | 0.00 | 0.00 | 36 | 1004.0 |
| 20260508161702 | 60 | 247 | 1.7 | 1.7 | 0.00 | 0.00 | 0.00 | 40 | 1004.0 |
| 20260508161209 | 60 | 252 | 1.7 | 1.7 | 0.00 | 0.00 | 0.00 | 37 | 1004.0 |
| 20260508160702 | 60 | 210 | 2.6 | 2.6 | 0.00 | 0.00 | 0.00 | 38 | 1004.0 |
| 20260508160203 | 61 | 306 | 2.6 | 2.6 | 0.00 | 0.00 | 0.00 | 36 | 1004.0 |
| 20260508155703 | 60 | 0 | 0.0 | 0.0 | 0.00 | 0.00 | 0.00 | 40 | 1004.0 |
| 20260508155204 | 60 | 60 | 0.9 | 0.9 | 0.00 | 0.00 | 0.00 | 42 | 1004.0 |
| 20260508154702 | 59 | 348 | 1.7 | 1.7 | 0.00 | 0.00 | 0.00 | 43 | 1004.0 |
| 20260508154202 | 62 | 42 | 1.7 | 1.7 | 0.00 | 0.00 | 0.00 | 39 | 1004.0 |
| 20260508153704 | 61 | 54 | 0.9 | 0.9 | 0.00 | 0.00 | 0.00 | 39 | 1004.0 |
| 20260508153202 | 60 | 18 | 1.7 | 1.7 | 0.00 | 0.00 | 0.00 | 40 | 1004.0 |
| 20260508152704 | 59 | 251 | 0.0 | 0.0 | 0.00 | 0.00 | 0.00 | 40 | 1004.0 |
| 20260508152206 | 59 | 83 | 0.0 | 0.0 | 0.00 | 0.00 | 0.00 | 46 | 1004.0 |
| 20260508151702 | 57 | 108 | 1.7 | 1.7 | 0.00 | 0.00 | 0.00 | 47 | 1004.0 |
| 20260508151202 | 55 | 42 | 2.6 | 2.6 | 0.00 | 0.00 | 0.00 | 48 | 1005.0 |
| 20260508150709 | 56 | 240 | 2.6 | 2.6 | 0.00 | 0.00 | 0.00 | 49 | 1005.0 |
| 20260508150202 | 57 | 107 | 0.0 | 0.0 | 0.00 | 0.00 | 0.00 | 48 | 1005.0 |
| 20260508145702 | 56 | 216 | 1.7 | 1.7 | 0.00 | 0.00 | 0.00 | 49 | 1005.0 |
| 20260508145203 | 56 | 246 | 1.7 | 1.7 | 0.00 | 0.00 | 0.00 | 51 | 1005.0 |
| 20260508144702 | 57 | 359 | 0.9 | 0.9 | 0.00 | 0.00 | 0.00 | 52 | 1005.0 |
| 20260508144203 | 56 | 222 | 1.7 | 1.7 | 0.00 | 0.00 | 0.00 | 51 | 1005.0 |
| 20260508143703 | 56 | 342 | 1.7 | 1.7 | 0.00 | 0.00 | 0.00 | 51 | 1005.0 |
| 20260508143203 | 56 | 242 | 0.9 | 0.9 | 0.00 | 0.00 | 0.00 | 53 | 1005.0 |
| 20260508142704 | 54 | 266 | 1.7 | 1.7 | 0.00 | 0.00 | 0.00 | 56 | 1005.0 |
| 20260508142203 | 54 | 238 | 2.6 | 3.5 | 0.00 | 0.00 | 0.00 | 54 | 1005.0 |
| 20260508141702 | 54 | 252 | 1.7 | 1.7 | 0.00 | 0.00 | 0.00 | 55 | 1005.0 |
| 20260508141203 | 56 | 252 | 0.9 | 0.9 | 0.00 | 0.00 | 0.00 | 54 | 1005.0 |
| 20260508140702 | 57 | 15 | 0.9 | 0.9 | 0.00 | 0.00 | 0.00 | 55 | 1005.0 |
| 20260508140203 | 56 | 78 | 0.9 | 0.9 | 0.00 | 0.00 | 0.00 | 57 | 1005.0 |
| 20260508135702 | 57 | 78 | 1.7 | 1.7 | 0.00 | 0.00 | 0.00 | 54 | 1005.0 |
| 20260508135202 | 56 | 90 | 1.7 | 1.7 | 0.00 | 0.00 | 0.00 | 56 | 1005.0 |
| 20260508134702 | 56 | 38 | 1.7 | 1.7 | 0.00 | 0.00 | 0.00 | 54 | 1005.0 |
| 20260508134203 | 56 | 72 | 0.9 | 0.9 | 0.00 | 0.00 | 0.00 | 56 | 1005.0 |
| 20260508133703 | 55 | 80 | 0.9 | 0.9 | 0.00 | 0.00 | 0.00 | 62 | 1005.0 |
| 20260508133203 | 53 | 256 | 0.9 | 0.9 | 0.00 | 0.00 | 0.00 | 62 | 1005.0 |
| 20260508132703 | 51 | 256 | 0.0 | 0.0 | 0.00 | 0.00 | 0.00 | 67 | 1005.0 |
| 20260508132202 | 52 | 256 | 1.7 | 1.7 | 0.00 | 0.00 | 0.00 | 64 | 1005.0 |
| 20260508131702 | 52 | 256 | 1.7 | 1.7 | 0.00 | 0.00 | 0.00 | 65 | 1005.0 |
| 20260508131202 | 52 | 246 | 0.0 | 0.0 | 0.00 | 0.00 | 0.00 | 64 | 1005.0 |
| 20260508130702 | 51 | 246 | 1.7 | 1.7 | 0.00 | 0.00 | 0.00 | 71 | 1005.0 |
| 20260508130203 | 50 | 246 | 1.7 | 1.7 | 0.00 | 0.00 | 0.00 | 69 | 1005.0 |
| 20260508125702 | 50 | 246 | 0.0 | 0.0 | 0.00 | 0.00 | 0.00 | 69 | 1005.0 |
| 20260508125202 | 51 | 246 | 0.9 | 0.9 | 0.00 | 0.00 | 0.00 | 70 | 1005.0 |
| 20260508124702 | 51 | 246 | 0.0 | 0.0 | 0.00 | 0.00 | 0.00 | 69 | 1005.0 |
| 20260508124203 | 53 | 54 | 0.0 | 0.0 | 0.00 | 0.00 | 0.00 | 67 | 1005.0 |
| 20260508123704 | 51 | 48 | 0.0 | 0.0 | 0.00 | 0.00 | 0.00 | 66 | 1005.0 |
| 20260508123202 | 50 | 48 | 0.0 | 0.0 | 0.00 | 0.00 | 0.00 | 74 | 1005.0 |
| 20260508122702 | 51 | 48 | 0.9 | 0.9 | 0.00 | 0.00 | 0.00 | 70 | 1005.0 |
| 20260508122204 | 52 | 48 | 0.0 | 0.0 | 0.00 | 0.00 | 0.00 | 71 | 1005.0 |
| 20260508121703 | 51 | 48 | 1.7 | 1.7 | 0.00 | 0.00 | 0.00 | 68 | 1005.0 |
| 20260508121203 | 50 | 48 | 0.0 | 0.0 | 0.00 | 0.00 | 0.00 | 72 | 1005.0 |
| 20260508120702 | 50 | 48 | 1.7 | 1.7 | 0.00 | 0.00 | 0.00 | 71 | 1005.0 |
| 20260508120202 | 50 | 48 | 0.0 | 0.0 | 0.00 | 0.00 | 0.00 | 72 | 1005.0 |
| 20260508115703 | 49 | 48 | 0.9 | 0.9 | 0.00 | 0.00 | 0.00 | 73 | 1005.0 |
| 20260508115202 | 49 | 44 | 0.0 | 0.0 | 0.00 | 0.00 | 0.00 | 74 | 1005.0 |
| 20260508114704 | 47 | 42 | 0.0 | 0.0 | 0.00 | 0.00 | 0.00 | 75 | 1005.0 |
| 20260508114203 | 47 | 42 | 0.0 | 0.0 | 0.00 | 0.00 | 0.00 | 77 | 1004.0 |
| 20260508113702 | 47 | 48 | 0.0 | 0.0 | 0.00 | 0.00 | 0.00 | 78 | 1004.0 |
| 20260508113203 | 46 | 48 | 0.0 | 0.0 | 0.00 | 0.00 | 0.00 | 79 | 1004.0 |
| 20260508112702 | 45 | 30 | 0.0 | 0.0 | 0.00 | 0.00 | 0.00 | 82 | 1004.0 |
| 20260508112202 | 44 | 29 | 0.0 | 0.0 | 0.00 | 0.00 | 0.00 | 86 | 1004.0 |
| 20260508111702 | 43 | 28 | 0.0 | 0.0 | 0.00 | 0.00 | 0.00 | 89 | 1004.0 |
| 20260508111203 | 42 | 27 | 0.0 | 0.0 | 0.00 | 0.00 | 0.00 | 94 | 1004.0 |
| 20260508110702 | 41 | 24 | 0.0 | 0.0 | 0.00 | 0.00 | 0.00 | 95 | 1004.0 |
| 20260508110203 | 41 | 24 | 0.0 | 0.0 | 0.00 | 0.00 | 0.00 | 95 | 1004.0 |
| 20260508105703 | 40 | 168 | 0.0 | 0.0 | 0.00 | 0.00 | 0.00 | 96 | 1004.0 |
| 20260508105202 | 40 | 190 | 0.0 | 0.0 | 0.00 | 0.00 | 0.00 | 96 | 1004.0 |
| 20260508104702 | 40 | 186 | 0.0 | 0.0 | 0.00 | 0.00 | 0.00 | 96 | 1004.0 |
| 20260508104202 | 40 | 186 | 0.0 | 0.0 | 0.00 | 0.00 | 0.00 | 96 | 1004.0 |
| 20260508103703 | 40 | 186 | 0.0 | 0.0 | 0.00 | 0.00 | 0.00 | 96 | 1004.0 |
| 20260508103202 | 40 | 186 | 0.9 | 0.9 | 0.00 | 0.00 | 0.00 | 97 | 1004.0 |
| 20260508102705 | 40 | 186 | 0.0 | 0.0 | 0.00 | 0.00 | 0.00 | 97 | 1004.0 |
| 20260508102203 | 40 | 186 | 0.0 | 0.0 | 0.00 | 0.00 | 0.00 | 97 | 1004.0 |
| 20260508101703 | 40 | 186 | 0.0 | 0.0 | 0.00 | 0.00 | 0.00 | 97 | 1004.0 |
| 20260508101205 | 40 | 192 | 0.0 | 0.0 | 0.00 | 0.00 | 0.00 | 97 | 1004.0 |
| 20260508100704 | 40 | 204 | 0.0 | 0.0 | 0.00 | 0.00 | 0.00 | 97 | 1004.0 |
| 20260508100202 | 40 | 258 | 0.0 | 0.0 | 0.00 | 0.00 | 0.00 | 97 | 1004.0 |
| 20260508095705 | 41 | 288 | 0.0 | 0.0 | 0.00 | 0.00 | 0.00 | 97 | 1004.0 |
| 20260508095202 | 41 | 306 | 0.0 | 0.0 | 0.00 | 0.00 | 0.00 | 97 | 1004.0 |
| 20260508094703 | 41 | 318 | 0.0 | 0.0 | 0.00 | 0.00 | 0.00 | 97 | 1004.0 |
| 20260508094203 | 41 | 330 | 0.0 | 0.0 | 0.00 | 0.00 | 0.00 | 97 | 1004.0 |
| 20260508093702 | 41 | 336 | 0.0 | 0.0 | 0.00 | 0.00 | 0.00 | 97 | 1004.0 |
| 20260508093202 | 41 | 336 | 0.0 | 0.0 | 0.00 | 0.00 | 0.00 | 97 | 1004.0 |
| 20260508092703 | 41 | 336 | 0.0 | 0.0 | 0.00 | 0.00 | 0.00 | 97 | 1004.0 |
| 20260508092202 | 42 | 336 | 0.0 | 0.0 | 0.00 | 0.00 | 0.00 | 97 | 1004.0 |
| 20260508091702 | 42 | 336 | 0.9 | 0.9 | 0.00 | 0.00 | 0.00 | 97 | 1004.0 |
| 20260508091202 | 42 | 336 | 1.7 | 1.7 | 0.00 | 0.00 | 0.00 | 97 | 1004.0 |
| 20260508090703 | 42 | 336 | 0.0 | 0.0 | 0.00 | 0.00 | 0.00 | 97 | 1004.0 |
| 20260508090202 | 42 | 334 | 0.0 | 0.0 | 0.00 | 0.00 | 0.00 | 97 | 1004.0 |
| 20260508085704 | 42 | 334 | 0.0 | 0.0 | 0.00 | 0.00 | 0.00 | 97 | 1004.0 |
| 20260508085203 | 42 | 334 | 0.0 | 0.0 | 0.00 | 0.00 | 0.00 | 97 | 1004.0 |
| 20260508084704 | 42 | 334 | 0.0 | 0.0 | 0.00 | 0.00 | 0.00 | 96 | 1004.0 |
| 20260508084204 | 42 | 334 | 0.0 | 0.0 | 0.00 | 0.00 | 0.00 | 97 | 1004.0 |
| 20260508083703 | 42 | 334 | 0.0 | 0.0 | 0.00 | 0.00 | 0.00 | 96 | 1004.0 |
| 20260508083203 | 42 | 334 | 0.0 | 0.0 | 0.00 | 0.00 | 0.00 | 96 | 1004.0 |
| 20260508082703 | 42 | 335 | 0.0 | 0.0 | 0.00 | 0.00 | 0.00 | 96 | 1004.0 |
| 20260508082207 | 42 | 335 | 0.0 | 0.0 | 0.00 | 0.00 | 0.00 | 96 | 1004.0 |
| 20260508081704 | 42 | 335 | 0.0 | 0.0 | 0.00 | 0.00 | 0.00 | 96 | 1004.0 |
| 20260508081202 | 42 | 335 | 0.0 | 0.0 | 0.00 | 0.00 | 0.00 | 96 | 1004.0 |
| 20260508080704 | 42 | 335 | 0.0 | 0.0 | 0.00 | 0.00 | 0.00 | 96 | 1004.0 |
| 20260508080202 | 43 | 335 | 0.0 | 0.0 | 0.00 | 0.00 | 0.00 | 96 | 1004.0 |
| 20260508075702 | 43 | 335 | 0.0 | 0.0 | 0.00 | 0.00 | 0.00 | 96 | 1004.0 |
| 20260508075203 | 43 | 335 | 0.0 | 0.0 | 0.00 | 0.00 | 0.00 | 96 | 1004.0 |
| 20260508074702 | 43 | 335 | 0.0 | 0.0 | 0.00 | 0.00 | 0.00 | 96 | 1004.0 |
| 20260508074202 | 43 | 335 | 0.9 | 0.9 | 0.00 | 0.00 | 0.00 | 96 | 1005.0 |
| 20260508073703 | 43 | 336 | 0.0 | 0.0 | 0.00 | 0.00 | 0.00 | 96 | 1005.0 |
| 20260508073204 | 43 | 336 | 0.0 | 0.0 | 0.00 | 0.00 | 0.00 | 96 | 1005.0 |
| 20260508072702 | 43 | 336 | 0.0 | 0.0 | 0.00 | 0.00 | 0.00 | 96 | 1004.0 |
| 20260508072203 | 43 | 336 | 0.0 | 0.0 | 0.00 | 0.00 | 0.00 | 96 | 1004.0 |
| 20260508071703 | 43 | 336 | 0.0 | 0.0 | 0.00 | 0.00 | 0.00 | 96 | 1004.0 |
| 20260508071202 | 42 | 336 | 0.0 | 0.0 | 0.00 | 0.00 | 0.00 | 96 | 1004.0 |
| 20260508070704 | 43 | 336 | 0.0 | 0.0 | 0.00 | 0.00 | 0.00 | 96 | 1004.0 |
| 20260508070202 | 43 | 336 | 0.0 | 0.0 | 0.00 | 0.00 | 0.00 | 96 | 1004.0 |
| 20260508065702 | 43 | 336 | 0.0 | 0.0 | 0.00 | 0.00 | 0.00 | 96 | 1004.0 |
| 20260508065203 | 42 | 336 | 0.0 | 0.0 | 0.00 | 0.00 | 0.00 | 96 | 1004.0 |
| 20260508064702 | 42 | 336 | 0.0 | 0.0 | 0.00 | 0.00 | 0.00 | 96 | 1004.0 |
| 20260508064203 | 42 | 336 | 0.0 | 0.0 | 0.00 | 0.00 | 0.00 | 95 | 1004.0 |
| 20260508063702 | 42 | 336 | 0.0 | 0.0 | 0.00 | 0.00 | 0.00 | 95 | 1004.0 |
| 20260508063206 | 42 | 336 | 0.0 | 0.0 | 0.00 | 0.00 | 0.00 | 95 | 1004.0 |
| 20260508062703 | 42 | 336 | 0.0 | 0.0 | 0.00 | 0.00 | 0.00 | 95 | 1004.0 |
| 20260508062204 | 42 | 336 | 0.0 | 0.0 | 0.00 | 0.00 | 0.00 | 95 | 1004.0 |
| 20260508061702 | 42 | 336 | 0.0 | 0.0 | 0.00 | 0.00 | 0.00 | 95 | 1004.0 |
| 20260508061202 | 42 | 336 | 0.0 | 0.0 | 0.00 | 0.00 | 0.00 | 95 | 1005.0 |
| 20260508060702 | 42 | 336 | 0.0 | 0.0 | 0.00 | 0.00 | 0.00 | 94 | 1005.0 |
| 20260508060202 | 42 | 336 | 0.0 | 0.0 | 0.00 | 0.00 | 0.00 | 94 | 1005.0 |
| 20260508055704 | 42 | 336 | 0.0 | 0.0 | 0.00 | 0.00 | 0.00 | 94 | 1005.0 |
| 20260508055204 | 42 | 336 | 0.0 | 0.0 | 0.00 | 0.00 | 0.00 | 94 | 1005.0 |
| 20260508054702 | 42 | 336 | 0.0 | 0.0 | 0.00 | 0.00 | 0.00 | 93 | 1005.0 |
| 20260508054202 | 43 | 336 | 0.0 | 0.0 | 0.00 | 0.00 | 0.00 | 92 | 1004.0 |
| 20260508053705 | 43 | 336 | 0.0 | 0.0 | 0.00 | 0.00 | 0.00 | 92 | 1004.0 |
| 20260508053205 | 43 | 336 | 0.0 | 0.0 | 0.00 | 0.00 | 0.00 | 92 | 1004.0 |
| 20260508052703 | 43 | 336 | 0.0 | 0.0 | 0.00 | 0.00 | 0.00 | 92 | 1005.0 |
| 20260508052203 | 44 | 336 | 0.0 | 0.0 | 0.00 | 0.00 | 0.00 | 91 | 1005.0 |
| 20260508051705 | 44 | 336 | 0.9 | 0.9 | 0.00 | 0.00 | 0.00 | 91 | 1005.0 |
| 20260508051202 | 44 | 336 | 0.0 | 0.0 | 0.00 | 0.00 | 0.00 | 90 | 1005.0 |
| 20260508050702 | 44 | 336 | 0.0 | 0.0 | 0.00 | 0.00 | 0.00 | 90 | 1005.0 |
| 20260508050202 | 44 | 336 | 0.0 | 0.0 | 0.00 | 0.00 | 0.00 | 89 | 1005.0 |
| 20260508045702 | 44 | 336 | 0.0 | 0.0 | 0.00 | 0.00 | 0.00 | 88 | 1005.0 |
| 20260508045203 | 45 | 336 | 0.0 | 0.0 | 0.00 | 0.00 | 0.00 | 87 | 1005.0 |
| 20260508044702 | 45 | 324 | 0.0 | 0.0 | 0.00 | 0.00 | 0.00 | 85 | 1005.0 |
| 20260508044202 | 45 | 24 | 0.9 | 0.9 | 0.00 | 0.00 | 0.00 | 82 | 1005.0 |
| 20260508043703 | 48 | 258 | 0.0 | 0.0 | 0.00 | 0.00 | 0.00 | 74 | 1005.0 |
| 20260508043204 | 50 | 312 | 0.9 | 0.9 | 0.00 | 0.00 | 0.00 | 62 | 1005.0 |
| 20260508042702 | 49 | 276 | 0.0 | 0.0 | 0.00 | 0.00 | 0.00 | 63 | 1004.0 |
| 20260508042203 | 49 | 276 | 0.0 | 0.0 | 0.00 | 0.00 | 0.00 | 61 | 1004.0 |
| 20260508041703 | 49 | 276 | 0.0 | 0.0 | 0.00 | 0.00 | 0.00 | 62 | 1004.0 |
| 20260508041202 | 49 | 276 | 0.0 | 0.0 | 0.00 | 0.00 | 0.00 | 62 | 1004.0 |
| 20260508040702 | 49 | 276 | 0.0 | 0.0 | 0.00 | 0.00 | 0.00 | 62 | 1004.0 |
| 20260508040202 | 49 | 276 | 0.0 | 0.0 | 0.00 | 0.00 | 0.00 | 61 | 1004.0 |
| 20260508035702 | 49 | 276 | 0.0 | 0.0 | 0.00 | 0.00 | 0.00 | 60 | 1004.0 |
| 20260508035204 | 50 | 276 | 0.0 | 0.0 | 0.00 | 0.00 | 0.00 | 58 | 1004.0 |
| 20260508034703 | 50 | 276 | 0.0 | 0.0 | 0.00 | 0.00 | 0.00 | 57 | 1004.0 |
| 20260508034203 | 51 | 276 | 0.0 | 0.0 | 0.00 | 0.00 | 0.00 | 56 | 1004.0 |
| 20260508033705 | 51 | 276 | 0.9 | 0.9 | 0.00 | 0.00 | 0.00 | 55 | 1004.0 |
| 20260508033203 | 51 | 276 | 0.0 | 0.0 | 0.00 | 0.00 | 0.00 | 56 | 1004.0 |
| 20260508032703 | 51 | 276 | 1.7 | 1.7 | 0.00 | 0.00 | 0.00 | 54 | 1005.0 |
| 20260508032203 | 52 | 276 | 1.7 | 1.7 | 0.00 | 0.00 | 0.00 | 54 | 1005.0 |
| 20260508031702 | 52 | 234 | 0.9 | 0.9 | 0.00 | 0.00 | 0.00 | 55 | 1005.0 |
| 20260508031203 | 51 | 234 | 1.7 | 1.7 | 0.00 | 0.00 | 0.00 | 54 | 1005.0 |
| 20260508030702 | 52 | 270 | 1.7 | 1.7 | 0.00 | 0.00 | 0.00 | 53 | 1005.0 |
| 20260508030202 | 51 | 319 | 1.7 | 1.7 | 0.00 | 0.00 | 0.00 | 55 | 1005.0 |
| 20260508025702 | 51 | 264 | 1.7 | 1.7 | 0.00 | 0.00 | 0.00 | 53 | 1005.0 |
| 20260508025203 | 51 | 246 | 0.9 | 0.9 | 0.00 | 0.00 | 0.00 | 54 | 1005.0 |
| 20260508024704 | 51 | 246 | 1.7 | 1.7 | 0.00 | 0.00 | 0.00 | 53 | 1005.0 |
| 20260508024202 | 51 | 276 | 1.7 | 1.7 | 0.00 | 0.00 | 0.00 | 54 | 1005.0 |
| 20260508023702 | 51 | 245 | 1.7 | 1.7 | 0.00 | 0.00 | 0.00 | 53 | 1005.0 |
| 20260508023202 | 51 | 30 | 0.0 | 0.0 | 0.00 | 0.00 | 0.00 | 53 | 1005.0 |
| 20260508022702 | 51 | 30 | 1.7 | 1.7 | 0.00 | 0.00 | 0.00 | 52 | 1005.0 |
| 20260508022202 | 51 | 30 | 0.0 | 0.0 | 0.00 | 0.00 | 0.00 | 51 | 1005.0 |
| 20260508021703 | 51 | 30 | 0.0 | 0.0 | 0.00 | 0.00 | 0.00 | 52 | 1005.0 |
| 20260508021202 | 51 | 30 | 0.0 | 0.0 | 0.00 | 0.00 | 0.00 | 52 | 1004.0 |
| 20260508020702 | 51 | 30 | 0.0 | 0.0 | 0.00 | 0.00 | 0.00 | 50 | 1004.0 |
| 20260508020202 | 51 | 30 | 0.0 | 0.0 | 0.00 | 0.00 | 0.00 | 51 | 1004.0 |
| 20260508015702 | 51 | 30 | 0.0 | 0.0 | 0.00 | 0.00 | 0.00 | 49 | 1004.0 |
| 20260508015202 | 51 | 30 | 0.0 | 0.0 | 0.00 | 0.00 | 0.00 | 49 | 1004.0 |
| 20260508014702 | 51 | 30 | 0.0 | 0.0 | 0.00 | 0.00 | 0.00 | 49 | 1004.0 |
| 20260508014203 | 51 | 30 | 0.0 | 0.0 | 0.00 | 0.00 | 0.00 | 48 | 1004.0 |
| 20260508013702 | 51 | 308 | 0.0 | 0.0 | 0.00 | 0.00 | 0.00 | 49 | 1004.0 |
| 20260508013203 | 51 | 308 | 0.0 | 0.0 | 0.00 | 0.00 | 0.00 | 47 | 1004.0 |
| 20260508012703 | 52 | 307 | 0.9 | 0.9 | 0.00 | 0.00 | 0.00 | 47 | 1004.0 |
| 20260508012203 | 52 | 307 | 0.0 | 0.0 | 0.00 | 0.00 | 0.00 | 46 | 1004.0 |
| 20260508011705 | 52 | 300 | 1.7 | 1.7 | 0.00 | 0.00 | 0.00 | 45 | 1004.0 |
| 20260508011203 | 52 | 237 | 0.0 | 0.0 | 0.00 | 0.00 | 0.00 | 45 | 1004.0 |
| 20260508010703 | 53 | 246 | 0.0 | 0.0 | 0.00 | 0.00 | 0.00 | 44 | 1004.0 |
| 20260508010203 | 53 | 252 | 1.7 | 1.7 | 0.00 | 0.00 | 0.00 | 44 | 1004.0 |
| 20260508005702 | 53 | 252 | 1.7 | 1.7 | 0.00 | 0.00 | 0.00 | 43 | 1004.0 |
| 20260508005202 | 53 | 252 | 1.7 | 1.7 | 0.00 | 0.00 | 0.00 | 43 | 1004.0 |
| 20260508004703 | 53 | 240 | 0.0 | 0.0 | 0.00 | 0.00 | 0.00 | 43 | 1004.0 |
| 20260508004204 | 53 | 243 | 1.7 | 1.7 | 0.00 | 0.00 | 0.00 | 42 | 1004.0 |
| 20260508003702 | 53 | 264 | 0.0 | 0.0 | 0.00 | 0.00 | 0.00 | 42 | 1004.0 |
| 20260508003202 | 53 | 234 | 0.0 | 0.0 | 0.00 | 0.00 | 0.00 | 42 | 1004.0 |
| 20260508002706 | 53 | 252 | 0.0 | 0.0 | 0.00 | 0.00 | 0.00 | 42 | 1004.0 |
| 20260508002202 | 53 | 252 | 2.6 | 2.6 | 0.00 | 0.00 | 0.00 | 41 | 1004.0 |
| 20260508001702 | 54 | 250 | 1.7 | 1.7 | 0.00 | 0.00 | 0.00 | 40 | 1004.0 |
| 20260508001202 | 54 | 234 | 1.7 | 1.7 | 0.00 | 0.00 | 0.00 | 40 | 1004.0 |
| 20260507232202 | 55 | 223 | 1.7 | 1.7 | 0.00 | 0.00 | 0.00 | 39 | 1004.0 |
| 20260507231703 | 55 | 228 | 2.6 | 3.5 | 0.00 | 0.00 | 0.00 | 38 | 1004.0 |